Location: ?ejeti?ky
(50.4060°N, 14.9016°E)
Time: 07:34:43
(UTC+00:00)

X-37B - Visible Passes

Search period start: 07 December 2021 00:00
Search period end: 17 December 2021 00:00
Orbit: 330 x 341 km, 45.0° (Epoch: 20 November)

Date Brightness Start Highest point End Pass type
(mag) Time Alt. Az. Time Alt. Az. Time Alt. Az.
07 Dec 3.3 17:17:58 10° S 17:18:08 11° S 17:18:08 11° S visible
08 Dec 3.4 17:37:24 10° SW 17:37:44 12° SSW 17:37:44 12° SSW visible
09 Dec 2.8 16:23:25 10° S 16:24:55 13° SSE 16:26:05 11° SE visible
10 Dec 2.2 16:42:49 10° SW 16:45:03 20° SSE 16:45:37 19° SSE visible
11 Dec 2.0 17:02:47 10° SW 17:05:09 26° S 17:05:09 26° S visible
12 Dec 2.5 15:48:15 10° SW 15:50:29 20° SSE 15:52:43 10° ESE visible
12 Dec 2.5 17:23:00 10° WSW 17:24:42 23° SSW 17:24:42 23° SSW visible
13 Dec 2.1 16:08:13 10° SW 16:10:42 26° S 16:13:03 11° ESE visible
13 Dec 3.4 17:43:23 10° WSW 17:44:16 16° SW 17:44:16 16° SW visible
14 Dec 2.1 16:28:26 10° WSW 16:30:57 27° S 16:32:40 16° SE visible
15 Dec 2.4 16:48:49 10° WSW 16:51:10 23° SSW 16:52:22 18° SSE visible
16 Dec 2.3 15:33:52 10° WSW 15:36:22 27° S 15:38:53 10° ESE visible
16 Dec 2.9 17:09:28 10° WSW 17:11:21 16° SSW 17:12:10 14° S visible
